Home   Weather   Chesapeake   Past weeks

Flag for USA Past Weather in Chesapeake, Virginia, USA — Yesterday and Last 2 Weeks

Now
64 °F

Overcast.


Feels Like: 64 °F
Forecast: 44 / 66 °F
Wind: 8 mph from South

Location: Chesapeake Municipal Airport

Current Time: Feb 22, 2017 at 10:53:23 am

Latest Report: Feb 22, 2017 at 10:35 am


Visibility: 10 mi

Pressure: 30.04 "Hg

Humidity: 61%

Dew Point: 50 °F

Location of ChesapeakeLocation

Past Weather in Chesapeake — Graph

°F

Chesapeake Temperature Yesterday

Maximum temperature yesterday: 58 °F (at 1:35 pm)
Minimum temperature yesterday: 32 °F (at 6:35 am)
Average temperature yesterday: 45 °F

High & Low Weather Summary for the Past Weeks

 TemperatureHumidityPressure
High81 °F (Feb 12, 2:35 pm)100% (Feb 14, 5:15 am)30.50 "Hg (Feb 14, 5:15 am)
Low21 °F (Feb 10, 5:55 am)18% (Feb 13, 5:35 am)29.41 "Hg (Feb 9, 6:15 am)
Average48 °F62%29.95 "Hg
* Reported Feb 7 9:15 am — Feb 22 9:35 am, Chesapeake, Weather by CustomWeather, © 2017

Note: Actual official high and low records may vary slightly from our data, if they occured in-between our weather recording intervals... More about our weather records

Advertising

Chesapeake Weather History for the Previous 24 Hours

Scroll right to see more
 ConditionsComfort  
Time TempWeatherWind HumidityBarometerVisibility
9:35 am
Wed, Feb 22
59 °FMostly cloudy.3 mph69%30.05 "Hg10 mi
9:15 am58 °FBroken clouds.6 mph72%30.06 "Hg10 mi
8:55 am56 °FPartly sunny.6 mph76%30.06 "Hg10 mi
8:35 am54 °FOvercast.3 mph83%30.06 "Hg10 mi
8:15 am53 °FPartly sunny.No wind86%30.06 "Hg10 mi
7:55 am50 °FPartly sunny.No wind90%30.06 "Hg10 mi
7:35 am48 °FPartly sunny.No wind94%30.06 "Hg10 mi
7:15 am47 °FOvercast.No wind94%30.06 "Hg10 mi
6:55 am46 °FOvercast.No wind93%30.06 "Hg10 mi
6:35 am46 °FOvercast.3 mph95%30.05 "Hg10 mi
6:15 am46 °FOvercast.No wind95%30.06 "Hg10 mi
5:55 am44 °FOvercast.No wind96%30.06 "Hg10 mi
5:35 am43 °FOvercast.No wind95%30.06 "Hg10 mi
5:15 am42 °FOvercast.No wind95%30.06 "Hg10 mi
4:55 am41 °FOvercast.No wind95%30.06 "Hg10 mi
4:35 am41 °FMostly cloudy.No wind95%30.06 "Hg10 mi
4:15 am41 °FOvercast.No wind94%30.07 "Hg10 mi
3:55 am42 °FOvercast.No wind95%30.07 "Hg10 mi
3:35 am42 °FPassing clouds.No wind92%30.07 "Hg10 mi
2:55 am40 °FClear.No wind95%30.08 "Hg10 mi
2:35 am40 °FClear.No wind95%30.08 "Hg10 mi
2:15 am40 °FClear.No wind93%30.09 "Hg10 mi
1:55 am39 °FClear.No wind93%30.10 "Hg10 mi
1:35 am41 °FClear.No wind89%30.10 "Hg10 mi
1:15 am42 °FClear.No wind88%30.10 "Hg10 mi
12:55 am41 °FClear.No wind89%30.11 "Hg10 mi
12:35 am41 °FClear.No wind93%30.12 "Hg10 mi
12:15 am40 °FClear.No wind96%30.13 "Hg10 mi
11:55 pm
Tue, Feb 21
40 °FClear.No wind96%30.14 "Hg10 mi
11:35 pm41 °FClear.No wind95%30.14 "Hg10 mi
11:15 pm41 °FPassing clouds.No wind95%30.15 "Hg10 mi
10:55 pm42 °FPassing clouds.No wind94%30.16 "Hg10 mi
10:35 pm42 °FClear.No wind90%30.17 "Hg10 mi
10:15 pm43 °FClear.No wind90%30.18 "Hg10 mi
9:55 pm43 °FPassing clouds.No wind91%30.19 "Hg10 mi
9:35 pm43 °FPassing clouds.No wind88%30.20 "Hg10 mi
9:15 pm44 °FClear.No wind84%30.19 "Hg10 mi
8:55 pm44 °FClear.No wind85%30.20 "Hg10 mi
8:35 pm46 °FClear.No wind81%30.20 "Hg10 mi
8:15 pm46 °FClear.No wind81%30.19 "Hg10 mi
7:55 pm46 °FClear.No wind81%30.20 "Hg10 mi
7:35 pm46 °FClear.No wind80%30.19 "Hg10 mi
7:15 pm46 °FClear.3 mph80%30.20 "Hg10 mi
6:55 pm46 °FClear.5 mph78%30.20 "Hg10 mi
6:35 pm47 °FClear.5 mph77%30.20 "Hg10 mi
6:15 pm48 °FClear.5 mph74%30.20 "Hg10 mi
5:55 pm49 °FClear.6 mph72%30.21 "Hg10 mi
5:35 pm50 °FSunny.8 mph67%30.20 "Hg10 mi
5:15 pm51 °FSunny.8 mph64%30.20 "Hg10 mi
4:55 pm52 °FSunny.8 mph61%30.19 "Hg10 mi
4:35 pm53 °FSunny.8 mph59%30.20 "Hg10 mi
3:55 pm54 °FSunny.10 mph56%30.20 "Hg10 mi
3:35 pm55 °FSunny.10 mph55%30.21 "Hg10 mi
2:55 pm55 °FSunny.10 mph55%30.22 "Hg10 mi
2:35 pm56 °FSunny.9 mph54%30.22 "Hg10 mi
2:15 pm57 °FSunny.9 mph52%30.22 "Hg10 mi
1:55 pm58 °FSunny.7 mph50%30.23 "Hg10 mi
1:35 pm58 °FSunny.6 mph49%30.24 "Hg10 mi
1:15 pm57 °FSunny.5 mph50%30.25 "Hg10 mi
12:55 pm57 °FSunny.5 mph49%30.26 "Hg10 mi
12:35 pm57 °FSunny.7 mph49%30.26 "Hg10 mi
12:15 pm56 °FSunny.7 mph49%30.28 "Hg10 mi
11:55 am57 °FSunny.5 mph48%30.28 "Hg10 mi
11:35 am56 °FSunny.7 mph48%30.29 "Hg10 mi
11:15 am56 °FSunny.8 mph45%30.30 "Hg10 mi
10:55 am55 °FSunny.9 mph47%30.30 "Hg10 mi
10:35 am55 °FSunny.8 mph51%30.31 "Hg10 mi
10:15 am53 °FSunny.9 mph57%30.31 "Hg10 mi
Weather by CustomWeather, © 2017

See weather overviewHow to use our weather pages